Location: downtown San Diego
(32.7310°N, 117.1990°W)
Time: 07:03:53
(UTC-08:00)

Daily predictions for brighter satellites

Satellite Brightness Start Highest point End
(mag) Time Altitude Azimuth Time Altitude Azimuth Time Altitude Azimuth
FENGYUN 3A 3.9 17:04:02 10° SSE 17:09:15 51° ENE 17:14:29 10° N
Ariane Rocket 4.3 17:06:27 10° ESE 17:09:50 18° ENE 17:13:12 10° NNE
Cosmos 2084 4.5 17:07:03 10° S 17:11:03 31° ESE 17:14:55 10° NE
COSMO-SKYMED 1 3.6 17:08:06 10° NE 17:11:46 26° E 17:15:25 10° SSE
Cosmos 1408 3.6 17:10:14 10° NNW 17:13:50 53° W 17:17:26 10° S
CZ-4 R/B 2.5 17:11:20 10° ESE 17:14:27 23° ENE 17:17:38 10° NNE
ATLAS 5 CENTAUR R/B 2.5 17:10:00 10° NNW 17:16:10 69° ENE 17:22:55 10° SE
NOSS 2-1 (C) 3.3 17:15:53 10° SW 17:19:30 72° WNW 17:23:08 10° NNE
Cosmos 1184 Rocket 3.6 17:16:50 10° SSE 17:19:46 31° E 17:22:44 10° NNE
NOSS 2-1 (D) 3.4 17:17:44 10° SW 17:21:19 66° WNW 17:24:56 10° NNE
H-2A R/B 4.2 17:18:59 10° W 17:24:46 71° S 18:03:10 10° ESE
Okean-O 4.0 17:21:08 10° S 17:25:21 44° W 17:29:36 10° NNW
Cosmos 494 Rocket 4.1 17:21:36 10° SSW 17:26:46 85° WNW 17:31:59 10° NNE
USA 116 3.8 17:25:34 10° NNE 17:28:27 35° E 17:31:23 10° SSE
Cosmos 1151 Rocket 3.3 17:25:15 10° SSW 17:29:28 71° W 17:33:44 10° N
Milstar 3 Cent rocket 3.1 17:25:51 10° W 17:30:47 54° S 17:39:08 10° ESE
Cosmos 1271 Rocket 3.1 17:29:34 10° N 17:33:17 42° E 17:37:01 10° SSE
COSMOS 2487 4.4 17:32:42 10° NE 17:33:45 13° NE 17:33:45 13° NE
ATLAS 2AS CENTAUR R/B 4.4 17:31:47 10° N 17:35:39 14° NE 17:38:25 12° ENE
YAOGAN 1 3.2 17:33:28 10° SE 17:37:17 32° ENE 17:41:08 10° N
Cosmos 1862 3.8 17:34:16 10° N 17:38:04 39° E 17:41:50 10° SSE
CRYOSAT 2 4.3 17:36:27 10° SSE 17:41:12 61° E 17:46:00 10° N
Cosmos 1331 Rocket 3.9 17:41:36 10° N 17:46:43 61° ENE 17:51:48 10° SSE
Cosmos 2082 Rocket 3.8 17:42:08 10° NW 17:47:19 38° WSW 17:52:31 10° S
NOAA 12 4.2 17:43:36 10° SSE 17:48:45 53° ENE 17:53:56 10° N
SL-27 R/B 4.3 17:46:19 10° NW 17:49:38 36° WSW 17:52:52 10° S
COSMOS 2455 4.5 17:49:09 10° NW 17:54:37 37° WSW 18:00:03 10° S
USA 161 2.2 17:56:10 21° S 17:56:10 21° S 17:56:55 10° S
H-2A R/B 2.8 17:52:55 10° SSE 17:56:29 49° ENE 18:00:07 10° N
Abrixas rocket 3.7 17:54:42 10° W 17:57:28 28° NNW 17:59:12 17° NNE
SKYMED 2 3.7 17:55:31 10° N 17:59:52 78° WNW 18:04:11 10° SSW
CZ-4C R/B 2.7 17:56:06 10° S 18:00:23 32° ESE 18:02:14 25° ENE
CSL-04 Debris 4.3 17:58:41 10° SSE 18:04:10 83° WSW 18:09:40 10° NNW
Cosmos 1174 4.4 18:03:10 10° S 18:05:24 28° SE 18:05:24 28° SE
Cosmos 2181 Rocket 4.2 18:00:43 10° N 18:06:35 45° E 18:12:30 10° SSE
OAO 1 Rocket 4.4 18:01:40 10° WNW 18:07:02 76° N 18:09:47 29° E
Envisat 3.6 18:11:01 30° E 18:11:56 32° ENE 18:16:24 10° N
Cosmos 921 Rocket 3.0 18:08:24 10° N 18:12:52 59° ENE 18:17:19 10° SSE
ALOS 4.4 18:09:01 10° SSW 18:13:04 29° W 18:17:07 10° NW
Cosmos 1707 Rocket 3.6 18:09:08 10° S 18:13:21 52° E 18:15:35 25° NNE
CZ-2C R/B 3.7 18:09:55 11° NNE 18:14:19 64° ESE 18:18:58 10° S
Cosmos 2285 Rocket 4.1 18:09:20 10° S 18:15:31 51° ESE 18:20:03 19° NNE
Cosmos 2263 4.3 18:12:38 10° SSW 18:18:24 80° WNW 18:24:05 10° NNE
Cosmos 2184 Rocket 4.3 18:17:25 10° SSE 18:23:23 43° E 18:27:26 20° NNE
Cosmos 2074 Rocket 4.1 18:20:39 10° SSE 18:26:33 48° E 18:30:43 19° NNE
NOSS 3-3 (A) 3.9 18:20:44 10° SSW 18:26:35 79° WNW 18:31:04 20° NNE
NOSS 3-3 (C) 3.9 18:20:50 10° SSW 18:26:41 80° WNW 18:31:08 21° NNE
DMSP B5D1-3 4.5 18:22:14 10° NNE 18:27:25 88° W 18:32:34 10° SSW
BREEZE-M DEB (TANK) 4.1 18:25:48 10° WNW 18:28:13 23° NNW 18:29:43 20° NNE
Cosmos 1933 3.9 18:24:48 10° SSW 18:28:45 58° W 18:32:45 10° N
Cosmos 972 Rocket 4.3 18:24:45 10° S 18:29:45 44° ESE 18:29:45 44° ESE
Cosmos 1656 Rocket 3.6 18:25:39 10° S 18:30:59 58° ESE 18:32:19 45° ENE
Cosmos 1302 Rocket 3.9 18:28:11 10° NNW 18:33:30 88° W 18:38:48 10° SSE
Hubble Space Telescope 3.3 18:34:13 10° WSW 18:36:37 15° SSW 18:38:39 11° S
Atlas Centaur 2 3.2 18:37:02 10° W 18:41:49 30° SSW 18:43:31 24° SSE
Cosmos 1943 Rocket 3.6 18:40:52 10° SW 18:45:57 36° WNW 18:51:03 10° N
Ariane Rocket 4.1 18:43:34 10° S 18:48:24 43° W 18:53:15 10° NNW
CZ-4 R/B 4.1 18:46:27 10° SW 18:49:22 20° W 18:52:21 10° NW
Cosmos 2369 Rocket 4.0 18:45:06 10° WSW 18:49:56 29° WNW 18:54:51 10° N
Timation 2 Rocket 4.0 19:03:06 10° NNW 19:09:08 70° WSW 19:10:57 45° S
ATLAS 2AS CENTAUR R/B 3.5 19:20:40 10° NNW 19:25:53 43° N 19:25:53 43° N
CZ-4C R/B 4.0 19:44:33 10° WSW 19:47:29 24° WNW 19:47:29 24° WNW
